Weather History for Szeged, Hungary

Change the Weather History Date:

Monday, October 15, 2012

  Actual Average (LRAR) Record (LRAR)
Temperature  
Mean Temperature 62 °F -  
Max Temperature 71 °F 56 °F 80 °F (2000)
Min Temperature 53 °F 38 °F 28 °F (2007)
Degree Days  
Heating Degree Days 3    
Growing Degree Days 12 (Base 50)    
Moisture  
Dew Point 57 °F    
Average Humidity 86    
Maximum Humidity 100    
Minimum Humidity 60    
Precipitation  
Precipitation 0.00 in 0.04 in - ()
Sea Level Pressure  
Sea Level Pressure 29.81 in    
Wind  
Wind Speed 7 mph ()    
Max Wind Speed 13 mph    
Max Gust Speed -    
Visibility 4.7 miles    
Events Fog    
Averages and records for this station are not official NWS values.
T = Trace of Precipitation, MM = Missing Value Source: Averaged Metar Reports

Daily Weather History Graph

Daily Weather History Graph

Search for Another Location

Airport:

Trip Planner

Search our weather history database for the weather conditions in past years. The results will help you decide how hot, cold, wet, or windy it might be!

Date:

Astronomy

Oct. 15, 2012 Rise Set
Actual Time 6:57 AM CEST 5:52 PM CEST
Civil Twilight 6:26 AM CEST 6:23 PM CEST
Nautical Twilight 5:51 AM CEST 6:57 PM CEST
Astronomical Twilight 5:17 AM CEST 7:32 PM CEST
Moon 6:47 AM CEST (10/15) 5:36 PM CEST (10/15)
Length of Visible Light 11h 56m
Length of Day
10h 55m
Waning Crescent, 0% of the Moon is Illuminated
Oct 15
Waning Crescent
Oct 15
New
Oct 22
First Quarter
Oct 29
Full
Nov 7
Last Quarter

Hourly Weather History & Observations

Time (CEST) Temp. Dew Point Humidity Pressure Visibility Wind Dir Wind Speed Gust Speed Precip Events Conditions
12:45 AM 57.2 °F 55.4 °F 94% 29.83 in 3.7 mi ESE 5.8 mph - N/A   Overcast
1:45 AM 57.2 °F 55.4 °F 94% 29.83 in 3.1 mi SE 4.6 mph - N/A   Overcast
2:00 AM 57 °F 56 °F 95% 29.83 in 3 mi SE 4.5 mph - -   Mist
2:45 AM 57.2 °F 55.4 °F 94% 29.83 in 3.1 mi SE 4.6 mph - N/A   Overcast
3:45 AM 57.2 °F 55.4 °F 94% 29.80 in 3.1 mi ESE 6.9 mph - N/A   Overcast
4:42 AM 55.4 °F 55.4 °F 100% 29.80 in 0.5 mi ESE 5.8 mph - N/A Fog Fog
4:45 AM 55.4 °F 55.4 °F 100% 29.80 in 0.5 mi ESE 5.8 mph - N/A Fog Fog
5:45 AM 55.4 °F 55.4 °F 100% 29.80 in 0.3 mi SE 6.9 mph - N/A Fog Fog
6:15 AM 55.4 °F 53.6 °F 94% 29.80 in 0.3 mi SE 6.9 mph - N/A Fog Fog
6:45 AM 53.6 °F 53.6 °F 100% 29.80 in 0.3 mi SE 6.9 mph - N/A Fog Fog
7:15 AM 53.6 °F 53.6 °F 100% 29.80 in 0.7 mi SE 6.9 mph - N/A   Mostly Cloudy
7:45 AM 53.6 °F 53.6 °F 100% 29.80 in 1.9 mi ESE 5.8 mph - N/A   Mostly Cloudy
8:00 AM 53 °F 53 °F 99% 29.81 in 2 mi ESE 6.7 mph - - Fog Light Fog
8:15 AM 53.6 °F 53.6 °F 100% 29.80 in 2.8 mi East 3.5 mph - N/A   Overcast
8:45 AM 53.6 °F 53.6 °F 100% 29.83 in 4.3 mi SE 6.9 mph - N/A   Overcast
9:15 AM 55.4 °F 53.6 °F 94% 29.83 in 6.2 mi SE 5.8 mph - N/A   Overcast
9:45 AM 55.4 °F 53.6 °F 94% 29.83 in 6.2 mi SE 8.1 mph - N/A   Overcast
10:15 AM 57.2 °F 55.4 °F 94% 29.83 in 6.2 mi SE 9.2 mph - N/A   Mostly Cloudy
10:45 AM 59.0 °F 57.2 °F 94% 29.83 in 6.2 mi SSE 5.8 mph - N/A   Mostly Cloudy
11:15 AM 62.6 °F 57.2 °F 82% 29.80 in 6.2 mi SE 8.1 mph - N/A   Mostly Cloudy
11:45 AM 64.4 °F 57.2 °F 77% 29.80 in 6.2 mi SSE 9.2 mph - N/A   Mostly Cloudy
12:15 PM 66.2 °F 59.0 °F 78% 29.80 in - SE 8.1 mph - N/A   Clear
12:45 PM 68.0 °F 59.0 °F 73% 29.80 in - SE 10.4 mph - N/A   Clear
1:15 PM 68.0 °F 59.0 °F 73% 29.80 in 6.2 mi SE 10.4 mph - N/A   Mostly Cloudy
1:45 PM 68.0 °F 59.0 °F 73% 29.80 in 6.2 mi SE 11.5 mph - N/A   Mostly Cloudy
2:00 PM 68 °F 60 °F 68% 29.78 in 19 mi SE 11.2 mph - -   Partly Cloudy
2:15 PM 69.8 °F 60.8 °F 73% 29.80 in 6.2 mi SE 8.1 mph - N/A   Mostly Cloudy
2:45 PM 71.6 °F 60.8 °F 69% 29.77 in 6.2 mi SE 11.5 mph - N/A   Mostly Cloudy
3:45 PM 71.6 °F 59.0 °F 64% 29.77 in 6.2 mi SSE 10.4 mph - N/A   Mostly Cloudy
4:15 PM 71.6 °F 57.2 °F 60% 29.77 in 6.2 mi SSE 12.7 mph - N/A   Scattered Clouds
4:45 PM 69.8 °F 59.0 °F 68% 29.77 in 6.2 mi SSE 11.5 mph - N/A   Partly Cloudy
5:15 PM 69.8 °F 59.0 °F 68% 29.77 in - SE 8.1 mph - N/A   Clear
5:45 PM 66.2 °F 59.0 °F 78% 29.77 in - SE 9.2 mph - N/A   Clear
6:15 PM 64.4 °F 59.0 °F 83% 29.77 in - ESE 8.1 mph - N/A   Clear
6:45 PM 64.4 °F 59.0 °F 83% 29.80 in - ESE 8.1 mph - N/A   Clear
7:15 PM 64.4 °F 59.0 °F 83% 29.80 in - SE 9.2 mph - N/A   Clear
7:45 PM 64.4 °F 59.0 °F 83% 29.80 in - ESE 9.2 mph - N/A   Clear
8:00 PM 64 °F 60 °F 81% 29.80 in 12 mi ESE 8.9 mph - -   Partly Cloudy
8:15 PM 62.6 °F 59.0 °F 88% 29.83 in - SE 9.2 mph - N/A   Clear
8:45 PM 62.6 °F 59.0 °F 88% 29.83 in - SE 9.2 mph - N/A   Clear
9:15 PM 60.8 °F 59.0 °F 94% 29.83 in - SE 9.2 mph - N/A   Clear
9:45 PM 60.8 °F 57.2 °F 88% 29.83 in - ESE 11.5 mph - N/A   Clear
10:45 PM 59.0 °F 57.2 °F 94% 29.83 in - SE 11.5 mph - N/A   Clear
11:45 PM 59.0 °F 55.4 °F 88% 29.83 in - SE 11.5 mph - N/A   Clear